Location: Miami
(39.3214°N, 93.2282°W)
Time: 11:48:47
(UTC+00:00)

ACS3 Solar Sail - Visible Passes

Search period start: 23 June 2024 00:00
Search period end: 03 July 2024 00:00
Orbit: 992 x 1024 km, 97.4° (Epoch: 23 June)

Date Brightness Start Highest point End Pass type
(mag) Time Alt. Az. Time Alt. Az. Time Alt. Az.
23 Jun 6.1 02:31:50 10° ESE 02:36:43 25° ENE 02:41:35 10° NNE visible
23 Jun 5.4 04:17:02 26° SSW 04:20:26 51° W 04:26:29 10° NNW visible
24 Jun 5.3 03:06:29 18° SE 03:10:49 46° ENE 03:16:42 10° N visible
24 Jun 6.4 04:51:49 17° SW 04:55:06 26° W 05:00:12 10° NW visible
25 Jun 4.8 03:41:16 25° SSE 03:45:07 87° ENE 03:51:22 10° N visible
25 Jun 7.1 05:27:21 10° WSW 05:29:57 13° W 05:32:33 10° WNW visible
26 Jun 6.1 02:30:54 10° ESE 02:35:51 26° ENE 02:40:47 10° NNE visible
26 Jun 5.5 04:16:05 24° SSW 04:19:36 49° W 04:25:37 10° NNW visible
27 Jun 5.3 03:05:31 18° SE 03:09:57 48° ENE 03:15:52 10° N visible
27 Jun 6.4 04:50:52 16° SW 04:54:15 25° W 04:59:17 10° NW visible
28 Jun 4.8 03:40:19 24° SSE 03:44:15 89° ENE 03:50:30 10° NNW visible
28 Jun 7.1 05:26:47 10° WSW 05:29:07 12° W 05:31:28 10° WNW visible
29 Jun 6.0 02:29:58 10° ESE 02:34:58 26° ENE 02:39:57 10° NNE visible
29 Jun 5.5 04:15:07 23° SSW 04:18:44 48° W 04:24:43 10° NNW visible
30 Jun 5.2 03:04:35 18° SE 03:09:05 49° ENE 03:15:02 10° N visible
30 Jun 6.5 04:49:56 16° SW 04:53:25 25° W 04:58:22 10° NW visible
01 Jul 4.8 03:39:23 24° SSE 03:43:23 88° WSW 03:49:38 10° NNW visible
01 Jul 7.1 05:26:15 10° WSW 05:28:17 12° W 05:30:21 10° WNW visible
02 Jul 6.0 02:29:01 10° ESE 02:34:04 27° ENE 02:39:08 10° NNE visible
02 Jul 5.6 04:14:11 22° SSW 04:17:53 46° W 04:23:50 10° NNW visible
